DateTimeUTC,F1_A11,F1_S11,BsB_S11,BsG_S11,BsR_S11,BbsB_S11,BbsG_S11,BbsR_S11,BaB_A11,BaG_A11,BaR_A11,Tu_S11,T_S11,Uu_S11,U_S11,P_S11,T1_A11
2021-07-28T17:00:00Z,00000200,20000000,,,,,,,-000.12,0000.37,0000.11,20.6,26.7,15.7,10.9,0686.3,31.2
2021-07-28T17:01:00Z,00000200,20000000,,,,,,,-000.19,-000.32,0000.10,20.6,26.7,15.5,10.7,0686.3,31.2
2021-07-28T17:02:00Z,00000200,20000000,,,,,,,-000.36,-000.24,-000.34,20.6,26.7,15.5,10.7,0686.3,31.2
2021-07-28T17:03:00Z,00000200,60000000,,,,,,,0001.19,0000.95,0000.90,20.6,26.7,15.5,10.7,0686.3,31.2
2021-07-28T17:04:00Z,00000200,40000000,0012.45,0008.88,0005.70,0001.60,0001.09,0001.05,0001.36,0001.23,0001.15,20.6,26.6,15.4,10.8,0687.2,31.2
2021-07-28T17:05:00Z,00000200,00000000,0013.03,0008.96,0005.70,0001.66,0001.01,0001.15,0001.91,0001.39,0001.33,20.7,26.6,15.4,10.8,0687.3,31.2
2021-07-28T17:06:00Z,00000200,00000000,0013.91,0009.26,0005.83,0001.66,0001.26,0001.12,0001.91,0002.20,0001.52,20.7,26.6,15.6,11.0,0687.4,31.2
2021-07-28T17:07:00Z,00000200,00000000,0013.55,0009.15,0005.47,0002.20,0001.24,0000.36,0001.39,0001.40,0001.26,20.7,26.5,15.5,10.9,0687.3,31.2
2021-07-28T17:08:00Z,00000200,00000000,0012.79,0009.34,0005.59,0001.71,0001.25,0001.04,0001.08,0001.36,0000.88,20.7,26.6,15.6,11.0,0687.3,31.2
2021-07-28T17:09:00Z,00000200,00000000,0013.81,0008.96,0005.39,0001.01,0001.25,0000.96,0001.69,0001.18,0001.08,20.7,26.6,15.5,10.9,0687.3,31.2
2021-07-28T17:10:00Z,00000200,00000000,0012.99,0009.35,0005.52,0002.02,0001.12,0000.96,0001.94,0001.66,0001.42,20.7,26.6,15.5,10.9,0687.4,31.2
2021-07-28T17:11:00Z,00000200,00000000,0013.54,0009.20,0005.71,0001.72,0001.23,0000.94,0001.36,0001.74,0001.27,20.7,26.6,15.7,11.0,0687.4,31.2
2021-07-28T17:12:00Z,00000200,00000000,0011.91,0009.12,0005.65,0001.68,0000.80,0000.79,0002.06,0001.55,0001.37,20.7,26.6,15.6,11.0,0687.4,31.2
2021-07-28T17:13:00Z,00000200,00000000,0013.54,0009.16,0005.62,0001.87,0001.19,0000.86,0001.06,0000.65,0001.05,20.7,26.6,15.8,11.1,0687.4,31.2
2021-07-28T17:14:00Z,00000200,00000000,0013.34,0009.15,0005.77,0001.46,0001.04,0000.86,0001.79,0001.91,0001.57,20.7,26.5,15.6,11.0,0687.4,31.2
2021-07-28T17:15:00Z,00000200,00000000,0013.67,0009.21,0005.87,0001.23,0001.03,0000.96,0001.42,0001.22,0001.04,20.7,26.6,15.7,11.1,0687.4,31.2
2021-07-28T17:16:00Z,00000200,00000000,0013.47,0009.08,0005.58,0001.72,0001.43,0001.12,0001.59,0001.91,0001.36,20.8,26.6,15.8,11.1,0687.4,31.2
2021-07-28T17:17:00Z,00000200,00000000,0013.07,0009.60,0005.81,0001.01,0001.44,0000.84,0001.73,0001.59,0001.31,20.8,26.6,15.9,11.2,0687.4,31.2
2021-07-28T17:18:00Z,00000200,00000000,0013.20,0009.04,0005.74,0001.04,0001.17,0001.00,0001.32,0001.19,0000.73,20.8,26.6,15.7,11.1,0687.4,31.2
2021-07-28T17:19:00Z,00000200,00000000,0012.60,0009.45,0005.81,0001.16,0001.35,0000.68,0001.44,0001.20,0001.56,20.8,26.6,15.7,11.1,0687.4,31.2
2021-07-28T17:20:00Z,00000200,00000000,0012.20,0009.26,0005.72,0001.32,0001.29,0000.80,0001.51,0001.52,0001.12,20.8,26.5,15.8,11.1,0687.4,31.2
2021-07-28T17:21:00Z,00000200,00000000,0011.93,0009.35,0005.85,0001.85,0001.41,0000.97,0001.33,0001.67,0001.21,20.8,26.6,15.8,11.1,0687.4,31.2
2021-07-28T17:22:00Z,00000200,00000000,0011.96,0009.47,0005.78,0001.73,0001.32,0000.64,0001.67,0001.39,0001.52,20.8,26.6,15.7,11.0,0687.4,31.2
2021-07-28T17:23:00Z,00000200,00000000,0013.31,0009.50,0005.62,0002.11,0001.16,0001.17,0002.07,0001.58,0001.26,20.8,26.6,15.9,11.2,0687.5,31.2
2021-07-28T17:24:00Z,00000200,00000000,0013.58,0009.08,0005.57,0001.28,0001.57,0001.04,0001.50,0001.69,0001.29,20.8,26.6,15.9,11.2,0687.4,31.2
2021-07-28T17:25:00Z,00000200,00000000,0012.93,0009.26,0005.80,0001.50,0001.05,0001.09,0000.88,0001.02,0000.92,20.8,26.6,15.9,11.2,0687.4,31.2
2021-07-28T17:26:00Z,00000200,00000000,0013.59,0008.58,0005.60,0001.52,0001.33,0000.93,0001.93,0001.44,0001.28,20.8,26.6,15.8,11.2,0687.4,31.2
2021-07-28T17:27:00Z,00000200,00000000,0012.62,0008.67,0005.52,0001.49,0001.05,0000.85,0001.54,0001.37,0001.15,20.8,26.6,15.9,11.2,0687.4,31.2
2021-07-28T17:28:00Z,00000200,00000000,0012.79,0008.92,0005.96,0001.84,0001.34,0000.86,0001.41,0001.54,0001.42,20.8,26.6,15.9,11.2,0687.4,31.2
2021-07-28T17:29:00Z,00000200,00000000,0012.96,0008.87,0005.65,0000.84,0001.49,0000.89,0001.51,0001.39,0001.00,20.8,26.6,16.1,11.3,0687.4,31.2
2021-07-28T17:30:00Z,00000200,00000000,0012.92,0009.18,0005.73,0001.91,0001.68,0000.80,0001.29,0001.40,0001.08,20.8,26.6,16.0,11.2,0687.4,31.2
2021-07-28T17:31:00Z,00000200,00000000,0013.47,0008.79,0005.54,0001.88,0001.31,0000.93,0001.34,0001.19,0001.16,20.8,26.6,15.7,11.1,0687.4,31.2
2021-07-28T17:32:00Z,00000200,00000000,0013.32,0009.27,0005.31,0001.69,0001.49,0000.28,0001.87,0001.81,0001.49,20.8,26.6,15.9,11.2,0687.4,31.2
2021-07-28T17:33:00Z,00000200,00000000,0012.13,0008.71,0005.03,0001.32,0001.20,0000.85,0001.28,0001.17,0000.85,20.8,26.6,16.0,11.3,0687.3,31.2
2021-07-28T17:34:00Z,00000200,00000000,0013.41,0009.35,0005.90,0001.61,0001.33,0000.80,0001.62,0001.55,0001.49,20.8,26.6,15.9,11.2,0687.4,31.2
2021-07-28T17:35:00Z,00000200,00000000,0012.57,0008.66,0005.16,0001.19,0001.15,0000.96,0000.74,0000.84,0000.90,20.8,26.6,16.0,11.3,0687.4,31.2
2021-07-28T17:36:00Z,00000200,00000000,0010.93,0007.85,0004.92,0000.72,0000.67,0000.90,0001.68,0001.35,0000.98,20.8,26.6,15.9,11.2,0687.3,31.2
2021-07-28T17:37:00Z,00000200,00000000,0011.69,0007.68,0005.03,0001.38,0001.17,0000.96,0001.25,0001.01,0001.00,20.8,26.6,15.8,11.1,0687.3,31.2
2021-07-28T17:38:00Z,00000200,00000000,0011.35,0008.46,0004.78,0001.05,0000.77,0000.70,0001.33,0001.26,0001.06,20.8,26.6,16.0,11.2,0687.4,31.2
2021-07-28T17:39:00Z,00000200,00000000,0011.60,0008.58,0005.40,0001.62,0001.11,0000.85,0001.26,0001.74,0001.45,20.8,26.6,16.0,11.3,0687.4,31.2
2021-07-28T17:40:00Z,00000200,00000000,0010.76,0008.49,0005.03,0001.36,0001.02,0000.64,0001.23,0001.26,0000.92,20.8,26.6,16.0,11.3,0687.4,31.2
2021-07-28T17:41:00Z,00000200,00000000,0011.13,0007.80,0004.42,0001.64,0001.27,0000.85,0001.72,0000.97,0001.11,20.8,26.6,16.1,11.3,0687.4,31.2
2021-07-28T17:42:00Z,00000200,00000000,0010.57,0007.40,0004.34,0001.13,0001.18,0000.67,0000.77,0001.28,0000.81,20.8,26.6,16.1,11.3,0687.4,31.2
2021-07-28T17:43:00Z,00000200,00000000,0011.07,0007.66,0004.85,0000.94,0000.96,0000.66,0001.75,0001.04,0001.16,20.7,26.6,16.2,11.4,0687.4,31.2
2021-07-28T17:44:00Z,00000200,00000000,0012.14,0008.43,0005.23,0001.45,0001.24,0000.76,0001.18,0001.37,0001.22,20.7,26.6,16.1,11.3,0687.4,31.2
2021-07-28T17:45:00Z,00000200,00000000,0011.95,0007.85,0005.28,0001.60,0001.44,0000.95,0001.50,0001.43,0000.85,20.7,26.6,16.3,11.5,0687.5,31.2
2021-07-28T17:46:00Z,00000200,00000000,0010.55,0008.09,0005.11,0001.10,0001.36,0000.98,0001.03,0001.16,0001.25,20.7,26.6,16.3,11.5,0687.4,31.2
2021-07-28T17:47:00Z,00000200,00000000,0011.43,0007.77,0004.80,0001.26,0001.19,0000.45,0001.40,0001.25,0001.04,20.7,26.6,16.2,11.4,0687.5,31.2
2021-07-28T17:48:00Z,00000200,00000000,0011.74,0007.96,0004.93,0001.64,0001.05,0000.73,0000.75,0000.62,0000.70,20.8,26.6,16.2,11.4,0687.4,31.2
2021-07-28T17:49:00Z,00000200,00000000,0011.62,0007.35,0004.64,0001.89,0001.04,0000.91,0001.57,0001.52,0001.16,20.7,26.6,16.0,11.2,0687.4,31.2
2021-07-28T17:50:00Z,00000200,00000000,0011.01,0008.05,0004.60,0001.11,0000.98,0000.53,0001.16,0001.26,0000.86,20.7,26.6,16.2,11.4,0687.4,31.2
2021-07-28T17:51:00Z,00000200,00000000,0009.23,0006.38,0003.98,0000.47,0001.01,0000.38,0000.73,0000.58,0000.52,20.7,26.6,16.0,11.3,0687.4,31.2
2021-07-28T17:52:00Z,00000200,00000000,0008.64,0006.30,0004.30,0001.32,0000.90,0000.58,0000.67,0000.68,0001.02,20.7,26.6,16.0,11.3,0687.4,31.2
2021-07-28T17:53:00Z,00000200,00000000,0008.46,0005.51,0003.34,0000.89,0000.92,0000.30,0000.88,0000.94,0000.28,20.7,26.6,16.0,11.2,0687.4,31.2
2021-07-28T17:54:00Z,00000200,00000000,0008.38,0005.66,0003.62,0000.71,0000.87,0000.87,0001.07,0000.62,0000.91,20.7,26.6,15.9,11.2,0687.4,31.2
2021-07-28T17:55:00Z,00000200,00000000,0009.24,0006.24,0003.91,0001.07,0001.05,0000.97,0000.43,0001.32,0000.70,20.7,26.6,16.0,11.3,0687.4,31.2
2021-07-28T17:56:00Z,00000200,00000000,0009.12,0006.01,0003.67,0001.05,0001.28,0000.58,0001.12,0000.60,0000.90,20.7,26.6,16.2,11.4,0687.5,31.2
2021-07-28T17:57:00Z,00000200,40000000,,,,,,,0000.08,0000.05,0000.06,20.8,26.7,15.8,11.1,0687.3,31.2
2021-07-28T17:58:00Z,00000200,60000000,,,,,,,0000.17,-000.26,-000.13,20.6,26.7,16.1,11.1,0686.5,31.2
2021-07-28T17:59:00Z,00000200,20000000,,,,,,,-000.37,-000.30,-000.27,20.6,26.8,16.1,11.1,0686.5,31.2
